KN6CW-3 Weather Reports


time (UTC)temp
C
wind
direction
speed
KPH
gust
KPH
rain 1hr
cm
rain 24hr
cm
rain mn
cm
humidity
%
barometer
mb
20260506231605 13 247 3.2 8.0 0.00 1.19 1.19 97 1006.6
20260506231110 -17 147 410.4 0.0 0.00 0.00 0.00
20260506231105 13 272 3.2 6.4 0.00 1.19 1.19 98 1006.5
20260506230604 13 267 3.2 11.3 0.00 1.19 1.19 98 1006.4
20260506230104 13 236 3.2 9.7 0.00 1.19 1.19 98 1006.4
20260506225609 -17 147 410.4 0.0 0.00 0.00 0.00
20260506225604 13 236 3.2 12.9 0.00 1.19 1.19 98 1006.5
20260506225105 14 251 4.8 11.3 0.00 1.19 1.19 98 1006.4
20260506224603 14 340 6.4 12.9 0.00 1.19 1.19 98 1006.3
20260506224108 -17 147 410.4 0.0 0.00 0.00 0.00
20260506224103 14 245 4.8 9.7 0.00 1.19 1.19 98 1006.2
20260506223603 14 258 4.8 9.7 0.00 1.19 1.19 99 1006.3
20260506223102 14 263 4.8 8.0 0.00 1.19 1.19 99 1006.4
20260506222607 -17 147 410.4 0.0 0.00 0.00 0.00
20260506222602 14 336 4.8 12.9 0.00 1.19 1.19 98 1006.3
20260506222102 14 239 3.2 11.3 0.00 1.19 1.19 99 1006.2
20260506221602 14 233 4.8 8.0 0.00 1.19 1.19 99 1006.2
20260506221106 -17 147 410.4 0.0 0.00 0.00 0.00
20260506221101 14 244 6.4 9.7 0.00 1.19 1.19 99 1006.0
20260506220601 14 217 4.8 11.3 0.00 1.19 1.19 98 1005.9
20260506220101 14 226 4.8 11.3 0.00 1.19 1.19 98 1005.8
20260506215600 14 226 4.8 8.0 0.00 1.19 1.19 98 1005.8
20260506215100 14 202 4.8 9.7 0.00 1.19 1.19 98 1005.8
20260506214601 14 250 6.4 9.7 0.00 1.19 1.19 99 1005.7
20260506214105 -17 147 410.4 0.0 0.00 0.00 0.00
20260506214059 14 219 4.8 11.3 0.00 1.19 1.19 98 1005.8
20260506213559 14 223 4.8 11.3 0.00 1.19 1.19 99 1005.7
20260506213059 14 284 4.8 11.3 0.00 1.19 1.19 99 1005.6
20260506212604 -17 147 410.4 0.0 0.00 0.00 0.00
20260506212559 14 259 4.8 8.0 0.00 1.19 1.19 99 1005.5
20260506212058 13 232 4.8 11.3 0.00 1.19 1.19 99 1005.4
20260506211558 13 248 4.8 16.1 0.00 1.19 1.19 99 1005.4
20260506211103 -17 147 410.4 0.0 0.00 0.00 0.00
20260506211058 14 200 4.8 11.3 0.00 1.19 1.19 99 1005.4
20260506210557 13 276 6.4 12.9 0.00 1.19 1.19 98 1005.3
20260506210057 13 261 6.4 14.5 0.00 1.19 1.19 98 1005.3
20260506205602 -17 147 410.4 0.0 0.00 0.00 0.00
20260506205557 13 266 6.4 16.1 0.00 1.19 1.19 98 1005.4
20260506205057 13 249 6.4 19.3 0.00 1.19 1.19 98 1005.3
20260506204556 13 173 4.8 12.9 0.00 1.19 1.19 98 1005.2
20260506204101 -17 147 410.4 0.0 0.00 0.00 0.00
20260506204056 13 192 4.8 11.3 0.00 1.19 1.19 99 1005.3
20260506203556 13 259 4.8 11.3 0.00 1.19 1.19 99 1005.3
20260506203056 13 199 4.8 12.9 0.03 1.19 1.19 99 1005.3
20260506202600 -17 147 410.4 0.0 0.00 0.00 0.00
20260506202555 13 234 4.8 8.0 0.03 1.19 1.19 99 1005.2
20260506202055 13 222 6.4 11.3 0.03 1.19 1.19 99 1005.3
20260506201555 13 232 6.4 12.9 0.03 1.19 1.19 99 1005.1
20260506201059 -17 147 410.4 0.0 0.00 0.00 0.00
20260506201054 13 209 6.4 20.9 0.03 1.19 1.19 98 1005.0
20260506200554 13 261 4.8 14.5 0.03 1.19 1.19 98 1005.2
20260506200054 13 259 6.4 14.5 0.03 1.19 1.19 98 1005.2
20260506195559 -17 147 410.4 0.0 0.00 0.00 0.00
20260506195553 13 225 4.8 11.3 0.03 1.19 1.19 99 1005.3
20260506195054 13 267 4.8 12.9 0.03 1.19 1.19 98 1005.2
20260506194553 13 277 6.4 14.5 0.03 1.19 1.19 98 1005.2
20260506194057 -17 147 410.4 0.0 0.00 0.00 0.00
20260506194052 13 290 6.4 16.1 0.03 1.19 1.19 98 1005.3
20260506193552 13 223 6.4 14.5 0.03 1.19 1.19 98 1005.2
20260506193052 13 257 6.4 14.5 0.03 1.17 1.17 98 1005.4
20260506192557 -17 147 410.4 0.0 0.00 0.00 0.00
20260506192552 13 209 4.8 17.7 0.03 1.17 1.17 98 1005.3
20260506192051 13 238 4.8 8.0 0.05 1.17 1.17 98 1005.4
20260506191551 13 207 4.8 11.3 0.05 1.17 1.17 98 1005.5
20260506191057 -17 147 410.4 0.0 0.00 0.00 0.00
20260506191051 13 212 6.4 11.3 0.08 1.17 1.17 98 1005.5
20260506190550 13 213 6.4 12.9 0.10 1.17 1.17 98 1005.4
20260506190050 13 235 6.4 14.5 0.13 1.17 1.17 98 1005.5
20260506185555 -17 147 410.4 0.0 0.00 0.00 0.00
20260506185550 13 231 6.4 12.9 0.13 1.17 1.17 98 1005.5
20260506185050 13 218 6.4 16.1 0.15 1.17 1.17 98 1005.4
20260506184549 13 227 4.8 9.7 0.18 1.17 1.17 98 1005.5
20260506184054 -17 147 410.4 0.0 0.00 0.00 0.00
20260506184049 13 166 6.4 11.3 0.20 1.17 1.17 98 1005.6
20260506183550 13 222 4.8 14.5 0.23 1.17 1.17 98 1005.7
20260506183048 13 278 6.4 14.5 0.23 1.14 1.14 98 1005.8
20260506182553 -17 147 410.4 0.0 0.00 0.00 0.00
20260506182548 13 217 6.4 22.5 0.23 1.14 1.14 98 1005.7
20260506182048 13 244 6.4 19.3 0.23 1.12 1.12 98 1005.7
20260506181548 13 228 6.4 19.3 0.23 1.12 1.12 98 1005.8
20260506181052 -17 147 410.4 0.0 0.00 0.00 0.00
20260506181047 13 187 6.4 11.3 0.23 1.09 1.09 98 1005.8
20260506180547 13 253 6.4 14.5 0.20 1.07 1.07 98 1005.9
20260506180047 13 197 4.8 14.5 0.20 1.04 1.04 98 1005.9
20260506175552 -17 147 410.4 0.0 0.00 0.00 0.00
20260506175546 13 213 3.2 8.0 0.23 1.04 1.04 98 1005.9
20260506175046 13 227 3.2 9.7 0.23 1.02 1.02 98 1005.8
20260506174546 13 272 3.2 11.3 0.20 0.99 0.99 98 1005.9
20260506174050 -17 147 410.4 0.0 0.00 0.00 0.00
20260506174046 13 239 4.8 8.0 0.20 0.97 0.97 98 1005.8
20260506173545 13 193 6.4 11.3 0.20 0.94 0.94 98 1005.8
20260506173045 13 221 4.8 14.5 0.20 0.91 0.91 98 1005.9
20260506172545 13 191 6.4 12.9 0.20 0.91 0.91 98 1005.9
20260506172044 13 87 6.4 16.1 0.18 0.89 0.89 98 1006.0
20260506171544 13 167 6.4 14.5 0.18 0.89 0.89 98 1005.9
20260506171049 -17 147 410.4 0.0 0.00 0.00 0.00
20260506171044 13 229 6.4 11.3 0.15 0.86 0.86 98 1006.0
20260506170544 13 186 8.0 16.1 0.15 0.86 0.86 98 1006.1
20260506170044 13 177 8.0 16.1 0.15 0.84 0.84 98 1005.9
20260506165548 -17 147 410.4 0.0 0.00 0.00 0.00
20260506165543 13 213 6.4 14.5 0.15 0.81 0.81 98 1005.9
20260506165043 13 152 4.8 9.7 0.15 0.79 0.79 98 1005.8
20260506164542 13 229 6.4 11.3 0.18 0.79 0.79 98 1005.8
20260506164047 -17 147 410.4 0.0 0.00 0.00 0.00
20260506164042 13 221 6.4 12.9 0.18 0.76 0.76 98 1005.9
20260506163542 13 200 6.4 16.1 0.18 0.74 0.74 98 1006.1
20260506163041 13 173 6.4 12.9 0.20 0.71 0.71 98 1006.0
20260506162546 -17 147 410.4 0.0 0.00 0.00 0.00
20260506162541 13 215 6.4 16.1 0.25 0.71 0.71 98 1006.1
20260506162041 13 229 6.4 16.1 0.28 0.71 0.71 98 1006.0
20260506161541 13 289 6.4 20.9 0.30 0.71 0.71 98 1006.0
20260506161045 -17 147 410.4 0.0 0.00 0.00 0.00
20260506161040 13 221 6.4 12.9 0.33 0.71 0.71 98 1006.0
20260506160540 13 199 6.4 14.5 0.33 0.71 0.71 98 1006.0
20260506160040 13 238 6.4 11.3 0.33 0.69 0.69 98 1005.9
20260506155544 -17 147 410.4 0.0 0.00 0.00 0.00
20260506155539 13 188 6.4 14.5 0.33 0.66 0.66 97 1006.0
20260506155039 13 251 6.4 16.1 0.30 0.64 0.64 97 1006.0
20260506154539 13 189 6.4 12.9 0.30 0.61 0.61 97 1006.0
20260506154043 -17 147 410.4 0.0 0.00 0.00 0.00
20260506154039 13 231 8.0 22.5 0.28 0.58 0.58 97 1006.2
20260506153538 13 147 8.0 17.7 0.28 0.56 0.56 97 1006.1
20260506153038 13 205 8.0 22.5 0.25 0.51 0.51 97 1006.2
20260506152543 -17 147 410.4 0.0 0.00 0.00 0.00
20260506152538 13 223 6.4 16.1 0.20 0.46 0.46 97 1006.6
20260506152037 13 194 4.8 14.5 0.18 0.43 0.43 97 1006.9
20260506151537 13 209 4.8 14.5 0.18 0.41 0.41 97 1006.7
20260506151042 -17 147 410.4 0.0 0.00 0.00 0.00
20260506151037 13 223 6.4 9.7 0.18 0.38 0.38 97 1006.6
20260506150537 13 182 8.0 16.1 0.18 0.38 0.38 97 1006.6
20260506150036 13 212 6.4 24.1 0.18 0.36 0.36 97 1006.5
20260506145542 -17 147 410.4 0.0 0.00 0.00 0.00
20260506145536 13 215 6.4 12.9 0.15 0.33 0.33 97 1006.4
20260506145036 13 250 6.4 16.1 0.18 0.33 0.33 97 1006.2
20260506144535 13 216 6.4 16.1 0.15 0.30 0.30 97 1006.4
20260506144040 -17 147 410.4 0.0 0.00 0.00 0.00
20260506144035 13 234 4.8 14.5 0.18 0.30 0.30 97 1006.3
20260506143535 13 101 3.2 9.7 0.15 0.28 0.28 97 1006.3
20260506143035 13 175 4.8 6.4 0.15 0.25 0.25 97 1006.2
20260506142539 -17 147 410.4 0.0 0.00 0.00 0.00
20260506142534 13 171 4.8 14.5 0.15 0.25 0.25 97 1006.4
20260506142035 13 184 4.8 14.5 0.18 0.25 0.25 96 1006.6
20260506141534 13 172 4.8 16.1 0.15 0.23 0.23 96 1006.7
20260506141039 -17 147 410.4 0.0 0.00 0.00 0.00
20260506141034 13 213 4.8 11.3 0.15 0.20 0.20 96 1006.8
20260506140533 13 177 4.8 12.9 0.15 0.20 0.20 96 1006.8
20260506140033 13 169 4.8 8.0 0.15 0.18 0.18 96 1006.8
20260506135539 -17 147 410.4 0.0 0.00 0.00 0.00
20260506135532 13 164 4.8 9.7 0.15 0.18 0.18 96 1006.7
20260506135032 13 154 4.8 8.0 0.13 0.15 0.15 96 1006.7
20260506134533 13 223 4.8 14.5 0.13 0.15 0.15 96 1006.7
20260506134036 -17 147 410.4 0.0 0.00 0.00 0.00
20260506134032 13 159 4.8 11.3 0.13 0.13 0.13 96 1006.9
20260506133531 13 264 4.8 11.3 0.13 0.13 0.13 95 1007.0
20260506133031 13 215 4.8 11.3 0.10 0.10 0.10 95 1007.0
20260506132536 -17 147 410.4 0.0 0.00 0.00 0.00
20260506132531 13 262 3.2 11.3 0.10 0.10 0.10 95 1006.9
20260506131530 13 141 4.8 11.3 0.08 0.08 0.08 95 1007.1
20260506131035 -17 147 410.4 0.0 0.00 0.00 0.00
20260506131030 13 242 4.8 16.1 0.05 0.05 0.05 94 1007.1
20260506130530 13 197 4.8 14.5 0.05 0.05 0.05 94 1007.2
20260506130029 13 186 4.8 12.9 0.03 0.03 0.03 94 1007.2
20260506125534 -17 147 410.4 0.0 0.00 0.00 0.00
20260506125529 13 203 4.8 8.0 0.03 0.03 0.03 93 1007.1
20260506125029 13 252 4.8 9.7 0.03 0.03 0.03 93 1007.1
20260506124528 13 198 4.8 12.9 0.03 0.03 0.03 92 1007.1
20260506124033 -17 147 410.4 0.0 0.00 0.00 0.00
20260506124028 14 205 4.8 11.3 0.00 0.00 0.00 92 1007.1
20260506123528 14 236 4.8 9.7 0.00 0.00 0.00 91 1007.0
20260506123028 14 219 4.8 11.3 0.00 0.00 0.00 90 1007.0
20260506122532 -17 147 410.4 0.0 0.00 0.00 0.00
20260506122527 14 229 4.8 11.3 0.00 0.00 0.00 90 1007.1
20260506122027 14 192 6.4 9.7 0.00 0.00 0.00 90 1007.0
20260506121527 14 186 4.8 16.1 0.00 0.00 0.00 90 1006.9
20260506121031 -17 147 410.4 0.0 0.00 0.00 0.00
20260506121026 14 173 4.8 14.5 0.00 0.00 0.00 90 1006.9
20260506120526 14 205 3.2 9.7 0.00 0.00 0.00 90 1006.8
20260506120026 14 200 3.2 8.0 0.00 0.00 0.00 90 1007.0
20260506115531 -17 147 410.4 0.0 0.00 0.00 0.00
20260506115525 14 182 4.8 9.7 0.00 0.00 0.00 90 1006.9
20260506115025 14 157 4.8 9.7 0.00 0.00 0.00 89 1006.8
20260506114525 14 212 4.8 17.7 0.00 0.00 0.00 89 1006.8
20260506114029 -17 147 410.4 0.0 0.00 0.00 0.00
20260506114025 14 177 4.8 12.9 0.00 0.00 0.00 88 1006.9
20260506113525 14 232 4.8 8.0 0.00 0.00 0.00 87 1006.9
20260506113024 15 232 4.8 14.5 0.00 0.00 0.00 86 1007.0
20260506112529 -17 147 410.4 0.0 0.00 0.00 0.00
20260506112524 15 189 4.8 14.5 0.00 0.00 0.00 85 1007.0
20260506112023 15 276 4.8 9.7 0.00 0.00 0.00 85 1007.0
20260506111523 15 258 4.8 14.5 0.00 0.00 0.00 83 1006.9
20260506111028 -17 147 410.4 0.0 0.00 0.00 0.00
20260506111023 15 246 4.8 12.9 0.00 0.00 0.00 82 1006.9
20260506110523 15 249 4.8 11.3 0.00 0.00 0.00 81 1006.8
20260506110023 15 200 4.8 12.9 0.00 0.00 0.00 81 1006.6
20260506105528 -17 147 410.4 0.0 0.00 0.00 0.00
20260506105522 15 240 4.8 11.3 0.00 0.00 0.00 80 1006.8
20260506105022 15 249 4.8 12.9 0.00 0.00 0.00 80 1006.7
20260506104521 15 234 4.8 11.3 0.00 0.00 0.00 80 1006.5
20260506104026 -17 147 410.4 0.0 0.00 0.00 0.00
20260506104021 15 229 4.8 14.5 0.00 0.00 0.00 80 1006.2
20260506103521 15 226 4.8 11.3 0.00 0.00 0.00 80 1006.4
20260506103021 15 229 4.8 8.0 0.00 0.00 0.00 80 1006.3
20260506102525 -17 147 410.4 0.0 0.00 0.00 0.00
20260506102520 15 139 6.4 12.9 0.00 0.00 0.00 79 1006.3
20260506102020 15 248 6.4 12.9 0.00 0.00 0.00 79 1006.2
20260506101520 15 229 4.8 14.5 0.00 0.00 0.00 79 1006.3
20260506101025 -17 147 410.4 0.0 0.00 0.00 0.00
20260506101019 15 234 4.8 12.9 0.00 0.00 0.00 78 1006.2
20260506100519 15 198 3.2 8.0 0.00 0.00 0.00 78 1006.2
20260506100019 15 184 3.2 12.9 0.00 0.00 0.00 77 1006.2
20260506095524 -17 147 410.4 0.0 0.00 0.00 0.00
20260506095519 15 254 4.8 11.3 0.00 0.00 0.00 77 1006.2
20260506095018 15 232 4.8 11.3 0.00 0.00 0.00 76 1006.5
20260506094518 15 197 4.8 11.3 0.00 0.00 0.00 76 1006.5
20260506094023 -17 147 410.4 0.0 0.00 0.00 0.00
20260506094018 15 278 4.8 8.0 0.00 0.00 0.00 76 1006.6
20260506093517 15 236 4.8 8.0 0.00 0.00 0.00 76 1006.5
20260506093017 15 259 4.8 17.7 0.00 0.00 0.00 75 1006.5
20260506092522 -17 147 410.4 0.0 0.00 0.00 0.00
20260506092517 15 267 4.8 9.7 0.00 0.00 0.00 75 1006.4
20260506092017 15 219 4.8 14.5 0.00 0.00 0.00 75 1006.5
20260506091516 15 225 3.2 9.7 0.00 0.00 0.00 75 1006.6
20260506091021 -17 147 410.4 0.0 0.00 0.00 0.00
20260506091016 15 205 4.8 9.7 0.00 0.00 0.00 74 1006.6
20260506090516 15 150 4.8 9.7 0.00 0.00 0.00 74 1006.6
20260506090015 15 208 3.2 11.3 0.00 0.00 0.00 74 1006.7
20260506085520 -17 147 410.4 0.0 0.00 0.00 0.00
20260506085515 16 235 3.2 8.0 0.00 0.00 0.00 73 1006.5
20260506085015 16 173 3.2 8.0 0.00 0.00 0.00 73 1006.6
20260506084515 16 216 3.2 9.7 0.00 0.00 0.00 73 1006.8
20260506084015 16 194 3.2 6.4 0.00 0.00 0.00 73 1006.7
20260506083514 16 235 3.2 9.7 0.00 0.00 0.00 72 1006.8
20260506083014 16 167 3.2 4.8 0.00 0.00 0.00 72 1006.8
20260506082513 16 222 4.8 9.7 0.00 0.05 0.00 72 1006.9
20260506082013 16 198 4.8 9.7 0.00 0.05 0.00 72 1006.8
20260506081513 16 200 4.8 9.7 0.00 0.05 0.00 71 1006.8
20260506081018 -17 147 410.4 0.0 0.00 0.00 0.00
20260506081013 16 188 4.8 16.1 0.00 0.05 0.00 71 1006.8
20260506080512 16 175 6.4 14.5 0.00 0.05 0.00 71 1006.8
20260506073510 16 169 4.8 8.0 0.00 0.05 0.00 70 1006.9
20260506073010 16 215 4.8 12.9 0.00 0.05 0.00 70 1007.0
20260506072511 16 254 4.8 11.3 0.00 0.05 0.00 69 1007.0
20260506072010 16 222 4.8 11.3 0.00 0.05 0.00 69 1007.1
20260506071509 16 245 4.8 12.9 0.00 0.05 0.00 68 1007.1
20260506071014 -17 147 410.4 0.0 0.00 0.00 0.00
20260506071009 16 165 4.8 11.3 0.00 0.05 0.00 68 1007.1
20260506070509 16 236 4.8 14.5 0.00 0.05 0.00 68 1007.1
20260506062511 -17 147 410.4 0.0 0.00 0.00 0.00
20260506062506 16 251 4.8 14.5 0.00 0.05 0.00 65 1007.5
20260506062006 17 161 6.4 12.9 0.00 0.05 0.00 64 1007.5
20260506061506 17 220 6.4 17.7 0.00 0.05 0.00 64 1007.6
20260506061010 -17 147 410.4 0.0 0.00 0.00 0.00
20260506061006 17 191 6.4 16.1 0.00 0.05 0.00 64 1007.6
20260506060505 17 213 6.4 22.5 0.00 0.05 0.00 64 1007.7
20260506051007 -17 147 410.4 0.0 0.00 0.00 0.00
20260506051002 17 211 8.0 14.5 0.00 0.05 0.00 61 1008.0
20260506050502 17 214 6.4 19.3 0.00 0.05 0.00 61 1008.0
20260506045001 17 244 6.4 16.1 0.00 0.05 0.00 60 1008.1
20260506044501 17 200 6.4 17.7 0.00 0.05 0.00 60 1008.2
20260506044005 -17 147 410.4 0.0 0.00 0.00 0.00
20260506044000 17 221 6.4 12.9 0.00 0.05 0.00 61 1008.2
20260506043500 17 236 4.8 16.1 0.00 0.05 0.00 61 1008.1
20260506043000 17 250 4.8 14.5 0.00 0.05 0.00 61 1008.1
20260506042504 -17 147 410.4 0.0 0.00 0.00 0.00
20260506042459 17 221 4.8 12.9 0.00 0.05 0.00 61 1008.2
20260506041959 17 225 4.8 12.9 0.00 0.05 0.00 61 1008.1
20260506041459 17 219 3.2 8.0 0.00 0.05 0.00 61 1008.2
20260506040959 17 216 3.2 11.3 0.00 0.05 0.00 61 1008.2
20260506040458 17 207 4.8 8.0 0.00 0.05 0.05 60 1008.3
20260506035958 17 215 4.8 12.9 0.00 0.05 0.05 59 1008.3
20260506035502 -17 147 410.4 0.0 0.00 0.00 0.00
20260506035458 17 251 4.8 14.5 0.00 0.05 0.05 59 1008.2
20260506034957 17 204 4.8 12.9 0.00 0.05 0.05 59 1008.2
20260506034457 17 203 4.8 16.1 0.00 0.05 0.05 58 1008.2
20260506034002 -17 147 410.4 0.0 0.00 0.00 0.00
20260506033957 17 176 4.8 11.3 0.00 0.05 0.05 58 1008.2
20260506033456 17 225 4.8 12.9 0.00 0.05 0.05 58 1008.2
20260506032956 17 238 4.8 12.9 0.00 0.05 0.05 58 1008.1
20260506032456 17 157 4.8 12.9 0.00 0.05 0.05 58 1008.1
20260506031956 17 238 4.8 12.9 0.00 0.05 0.05 57 1008.2
20260506031455 17 271 4.8 11.3 0.00 0.05 0.05 58 1008.1
20260506031000 -17 147 410.4 0.0 0.00 0.00 0.00
20260506030955 17 277 3.2 6.4 0.00 0.05 0.05 58 1008.2
20260506030455 17 218 3.2 9.7 0.00 0.05 0.05 58 1008.1
20260506025955 17 188 4.8 9.7 0.00 0.05 0.05 58 1008.1
20260506025459 -17 147 410.4 0.0 0.00 0.00 0.00
20260506025454 17 227 4.8 11.3 0.00 0.05 0.05 57 1008.2
20260506024954 17 178 4.8 8.0 0.00 0.05 0.05 57 1008.1
20260506024454 17 199 3.2 11.3 0.00 0.05 0.05 57 1008.2
20260506023958 -17 147 410.4 0.0 0.00 0.00 0.00
20260506023953 17 174 3.2 11.3 0.00 0.05 0.05 57 1008.3
20260506023453 18 180 3.2 9.7 0.00 0.05 0.05 57 1008.3
20260506022953 18 181 3.2 8.0 0.00 0.05 0.05 56 1008.3
20260506022457 -17 147 410.4 0.0 0.00 0.00 0.00
20260506022452 18 167 3.2 6.4 0.00 0.05 0.05 56 1008.3
20260506021952 18 195 3.2 11.3 0.00 0.05 0.05 55 1008.3
20260506021452 18 156 1.6 4.8 0.00 0.05 0.05 54 1008.4
20260506020956 -17 147 410.4 0.0 0.00 0.00 0.00
20260506020952 18 241 3.2 9.7 0.00 0.05 0.05 53 1008.3
20260506020451 19 196 3.2 6.4 0.00 0.05 0.05 53 1008.3
20260506015951 19 204 4.8 12.9 0.00 0.05 0.05 52 1008.2
20260506015455 -17 147 410.4 0.0 0.00 0.00 0.00
20260506015451 19 166 4.8 9.7 0.00 0.05 0.05 51 1008.2
20260506014950 20 173 6.4 12.9 0.00 0.05 0.05 51 1008.2
20260506014450 20 224 4.8 14.5 0.00 0.05 0.05 51 1008.1
20260506013950 20 163 6.4 16.1 0.00 0.05 0.05 51 1008.1
20260506013450 20 237 6.4 17.7 0.00 0.05 0.05 51 1008.1
20260506012949 20 241 6.4 9.7 0.00 0.05 0.05 52 1008.0
20260506012454 -17 147 410.4 0.0 0.00 0.00 0.00
20260506012449 20 202 4.8 14.5 0.00 0.05 0.05 52 1008.0
20260506011949 20 202 4.8 9.7 0.00 0.05 0.05 52 1007.9
20260506011449 20 224 4.8 9.7 0.00 0.05 0.05 52 1007.9
20260506010954 -17 147 410.4 0.0 0.00 0.00 0.00
20260506010948 20 243 4.8 14.5 0.00 0.05 0.05 51 1007.8
20260506010448 20 199 4.8 11.3 0.00 0.05 0.05 51 1007.8
20260506005947 20 213 4.8 11.3 0.00 0.05 0.05 51 1007.8
20260506005453 -17 147 410.4 0.0 0.00 0.00 0.00
20260506005447 20 221 4.8 16.1 0.00 0.05 0.05 51 1007.6
20260506004947 20 212 4.8 16.1 0.00 0.05 0.05 51 1007.5
20260506004447 20 211 4.8 12.9 0.00 0.05 0.05 51 1007.5
20260506003951 -17 147 410.4 0.0 0.00 0.00 0.00
20260506003946 20 261 4.8 12.9 0.00 0.05 0.05 51 1007.5
20260506003446 20 273 4.8 11.3 0.00 0.05 0.05 50 1007.6
20260506002946 20 176 4.8 9.7 0.00 0.05 0.05 50 1007.6
20260506002445 20 213 6.4 20.9 0.00 0.05 0.05 49 1007.5
20260506001945 20 203 4.8 12.9 0.00 0.05 0.05 49 1007.5
20260506001445 21 188 4.8 8.0 0.00 0.05 0.05 49 1007.4
20260506000945 21 229 4.8 12.9 0.00 0.05 0.05 48 1007.4
20260506000445 21 221 4.8 9.7 0.00 0.05 0.05 48 1007.4
20260505235944 21 155 6.4 16.1 0.00 0.05 0.05 48 1007.3
20260505235444 21 238 6.4 11.3 0.00 0.05 0.05 47 1007.3
20260505234943 21 207 6.4 14.5 0.00 0.05 0.05 47 1007.2
20260505234443 21 221 6.4 14.5 0.00 0.05 0.05 47 1007.3
20260505233948 -17 147 410.4 0.0 0.00 0.00 0.00
20260505233943 21 200 6.4 14.5 0.00 0.05 0.05 47 1007.3
20260505233443 21 205 6.4 19.3 0.00 0.05 0.05 47 1007.2
20260505232942 22 241 8.0 14.5 0.00 0.05 0.05 47 1007.1
20260505232442 22 209 8.0 25.7 0.00 0.05 0.05 47 1007.1
20260505231942 22 215 8.0 16.1 0.00 0.05 0.05 46 1007.1